TimeCST,TemperatureF,Dew PointF,Humidity,Sea Level PressureIn,VisibilityMPH,Wind Direction,Wind SpeedMPH,Gust SpeedMPH,PrecipitationIn,Events,Conditions,WindDirDegrees,DateUTC
12:53 AM,39.9,32.0,73,30.28,7.0,South,8.1,-,N/A,,Clear,190,2012-11-19 06:53:00
1:53 AM,37.9,30.9,76,30.27,8.0,South,9.2,-,N/A,,Clear,190,2012-11-19 07:53:00
2:53 AM,37.9,30.9,76,30.25,8.0,South,8.1,-,N/A,,Clear,180,2012-11-19 08:53:00
3:53 AM,34.0,28.9,82,30.26,8.0,SSE,3.5,-,N/A,,Clear,150,2012-11-19 09:53:00
4:53 AM,36.0,30.0,79,30.26,7.0,Calm,Calm,-,N/A,,Partly Cloudy,0,2012-11-19 10:53:00
5:53 AM,37.0,30.9,79,30.25,7.0,Calm,Calm,-,N/A,,Clear,0,2012-11-19 11:53:00
6:53 AM,36.0,32.0,86,30.25,7.0,South,5.8,-,N/A,,Clear,170,2012-11-19 12:53:00
7:53 AM,39.9,34.0,79,30.24,5.0,South,4.6,-,N/A,,Haze,180,2012-11-19 13:53:00
8:53 AM,44.1,36.0,73,30.23,6.0,South,3.5,-,N/A,,Haze,170,2012-11-19 14:53:00
9:53 AM,50.0,36.0,59,30.25,8.0,SSW,11.5,17.3,N/A,,Partly Cloudy,200,2012-11-19 15:53:00
10:53 AM,51.1,36.0,56,30.20,9.0,SSE,5.8,-,N/A,,Clear,160,2012-11-19 16:53:00
11:53 AM,52.0,36.0,54,30.18,9.0,SSW,8.1,-,N/A,,Mostly Cloudy,200,2012-11-19 17:53:00
12:53 PM,52.0,36.0,54,30.17,9.0,South,6.9,-,N/A,,Overcast,190,2012-11-19 18:53:00
1:53 PM,53.1,37.9,57,30.14,9.0,SSE,5.8,-,N/A,,Overcast,160,2012-11-19 19:53:00
2:53 PM,53.1,37.9,57,30.13,9.0,Calm,Calm,-,N/A,,Overcast,0,2012-11-19 20:53:00
3:53 PM,51.1,37.9,61,30.13,9.0,Calm,Calm,-,N/A,,Overcast,0,2012-11-19 21:53:00
4:53 PM,48.0,39.0,71,30.13,7.0,Calm,Calm,-,N/A,,Overcast,0,2012-11-19 22:53:00
5:53 PM,46.0,39.9,79,30.13,7.0,Calm,Calm,-,0.00,,Overcast,0,2012-11-19 23:53:00
6:53 PM,44.1,41.0,89,30.14,6.0,Calm,Calm,-,0.05,,Overcast,0,2012-11-20 00:53:00
7:53 PM,46.0,41.0,83,30.13,7.0,SSW,3.5,-,0.00,,Overcast,200,2012-11-20 01:53:00
8:18 PM,46.4,42.8,87,30.10,7.0,South,5.8,-,N/A,,Overcast,180,2012-11-20 02:18:00
9:53 PM,46.0,43.0,89,30.10,5.0,SSE,4.6,-,0.01,,Overcast,150,2012-11-20 03:53:00
10:53 PM,46.0,43.0,89,30.09,4.0,South,4.6,-,N/A,,Overcast,170,2012-11-20 04:53:00
11:53 PM,46.0,43.0,89,30.08,3.0,South,5.8,-,N/A,,Overcast,180,2012-11-20 05:53:00